Weather Roundup
Issued by NWS Chicago, IL

Home | Current Version | Previous Version | Text Only | Print | Product List | Glossary Off
Versions: 1 2 3 4 5 6 7 8 9 10 11 12 13 14 15 16 17 18 19 20 21 22 23 24 25 26 27 28 29 30 31 32 33 34 35 36 37 38 39 40 41 42 43 44 45 46 47 48 49 50

000
NZUS59 KLOT 240006
HRRLOT

CHICAGO AREA WEATHER ROUNDUP
NATIONAL WEATHER SERVICE CHICAGO/ROMEOVILLE IL
700 PM CDT WED JUL 23 2014

NOTE: "FAIR" INDICATES FEW OR NO CLOUDS BELOW 12,000 FEET WITH NO
SIGNIFICANT WEATHER AND/OR OBSTRUCTIONS TO VISIBILITY.

* THESE STATIONS ARE NOT UNDER NWS QUALITY CONTROL. THEY ALSO MAY NOT
  REPORT WEATHER SUCH AS PRECIPITATION OR FOG.

ILZ005-006-012>014-019>023-240100-
NORTHEAST ILLINOIS

CITY           SKY/WX    TMP DP  RH WIND       PRES   REMARKS
OHARE          MOSUNNY   67  49  52 NE15G25   30.15S
6HR MIN TEMP:  67; 6HR MAX TEMP:  75;

MIDWAY         MOSUNNY   68  52  56 N18       30.14S
6HR MIN TEMP:  68; 6HR MAX TEMP:  74;

AURORA         SUNNY     71  55  56 NE12      30.14R
6HR MIN TEMP:  70; 6HR MAX TEMP:  78;

LANSING*       SUNNY     64  51  64 N15G24    30.14S
JOLIET*        SUNNY     69  51  53 NE12      30.14R
WAUKEGAN       SUNNY     63  50  62 N12G24    30.15S
6HR MIN TEMP:  63; 6HR MAX TEMP:  70;

DUPAGE AIRPORT SUNNY     68  54  60 NE15      30.14R
6HR MIN TEMP:  68; 6HR MAX TEMP:  77;

WHEELING       SUNNY     65  51  60 N13       30.16F
6HR MIN TEMP:  65; 6HR MAX TEMP:  74;

KANKAKEE*      SUNNY     67  53  61 NE14      30.12S
MORRIS*        MOSUNNY   72  56  57 E8        30.12R
LEWIS AIRPORT* SUNNY     68  52  57 NE17      30.13R
NORTHERLY IS     N/A     63  52  67 MISG        N/A
$$

WIZ051-052-058>065-066-070>072-240100-
SOUTHEAST WISCONSIN

CITY           SKY/WX    TMP DP  RH WIND       PRES   REMARKS
MILWAUKEE      MOSUNNY   63  52  67 NE10      30.17S
6HR MIN TEMP:  63; 6HR MAX TEMP:  69;

KENOSHA*       SUNNY     64  51  62 NE12G20   30.16F
RACINE*        SUNNY     63  54  72 N9        30.18S
BURLINGTON     SUNNY     64  52  64 E10       30.17S
WAUKESHA       PTSUNNY   64  48  55 E12       30.18S
WEST BEND      MOSUNNY   64  48  55 E6        30.17S
$$

INZ001>003-010>013-019-020-240100-
NORTHWEST INDIANA

CITY           SKY/WX    TMP DP  RH WIND       PRES   REMARKS
GARY*          SUNNY     66  54  63 N16G32    30.14S
MICHIGAN CITY* NOT AVBL
RENSSELAER*    NOT AVBL
VALPARAISO     SUNNY     66  51  58 N14G21    30.11S
$$

LMZ740>746-240100-
SOUTHERN LAKE MICHIGAN

STATION/POSITION TIME  SKY/WX   TEMP WIND        PRES    VSBY
                                AIR  DIR/SP/G
                 (UTC)          (F)  (DEG/KT/KT) (MB)    (MI)
HARRISON CRIB    0000            63  360/ 22/ 26   N/A
BURNHAM HARBOR   0000            63   10/ 11/ 16   N/A
CALUMET HARBOR   0000            63  340/ 13/ 19 1019.6S
BURNS HARBOR     2300            66   20/ 23     1020.0
MICHIGAN CITY    0000            64  350/ 29/ 34   N/A
$$

ABBREVIATIONS USED IN REMARKS
   TC - TEMPERATURE IN CELSIUS
  WCI - WIND CHILL INDEX
   HX - HEAT INDEX
  VSB - VISIBILITY
$$



USA.gov is the U.S. government's official web portal to all federal, state and local government web resources and services.